Location: Invercargill
(46.4000°S, 168.3500°E)
Time: 19:47:01
(UTC+12:00)

ATLAS 3B R/B - Pass Details

Date: 14 May 2021
Orbit: 1006 x 1189 km, 63.8° (Epoch: 10 June)

Event Time Altitude Azimuth Distance (km) Brightness Sun altitude
Rises 18:28:43 0° 341° (NNW) 4,076 6.3 -11.0°
Reaches altitude 10° 18:31:30 10° 344° (NNW) 3,117 5.6 -11.5°
Maximum altitude 18:38:48 57° 60° (ENE) 1,373 3.0 -12.7°
Enters shadow 18:45:30 12° 135° (SE) 2,906 4.5 -13.9°
